Casa Grande, AZ

1:11 PM MST on June 26, 2017 (GMT -0700)
Casa Grande Municipal

Weather History for KCGZ - August, 2014

Change the Weather History Date:

Monday, August 11, 2014

  Actual Average Record
Temperature  
Mean Temperature 91 °F -  
Max Temperature 102 °F 99 °F 109 °F (2003)
Min Temperature 80 °F 75 °F 68 °F (1999)
Cooling Degree Days 26    
Growing Degree Days 41 (Base 50)    
Moisture  
Dew Point 60 °F    
Average Humidity 36    
Maximum Humidity 51    
Minimum Humidity 22    
Precipitation  
Precipitation 0.00 in - - ()
Sea Level Pressure  
Sea Level Pressure 29.92 in    
Wind  
Wind Speed 3 mph (SE)    
Max Wind Speed 16 mph    
Max Gust Speed 28 mph    
Visibility 10 miles    
Events Thunderstorm    
Averages and records for this station are not official NWS values.
T = Trace of Precipitation, MM = Missing Value Source: NWS Daily Summary

Daily Weather History Graph

Daily Weather History Graph

Search for Another Location

Airport or City:

Trip Planner

Search our weather history database for the weather conditions in past years. The results will help you decide how hot, cold, wet, or windy it might be!

Date:

Astronomy

Aug. 11, 2014 Rise Set
Actual Time 5:47 AM MST 7:16 PM MST
Civil Twilight 5:21 AM MST 7:42 PM MST
Nautical Twilight 4:49 AM MST 8:14 PM MST
Astronomical Twilight 4:16 AM MST 8:47 PM MST
Moon 7:55 PM MST (8/11) 6:50 AM MST (8/11)
Length of Visible Light 14h 21m
Length of Day
13h 28m
Full, 98% of the Moon is Illuminated
Aug 11
Full
Aug 17
Last Quarter
Aug 25
New
Sep 2
First Quarter
Sep 8
Full

Hourly Weather History & Observations

Time (MST) Temp. Heat Index Dew Point Humidity Pressure Visibility Wind Dir Wind Speed Gust Speed Precip Events Conditions
12:15 AM 86.0 °F 86.1 °F 60.8 °F 43% 29.94 in 10.0 mi East 5.8 mph - N/A   Clear
12:35 AM 86.0 °F 86.1 °F 60.8 °F 43% 29.94 in 10.0 mi ENE 4.6 mph - N/A   Clear
12:55 AM 86.0 °F 86.1 °F 60.8 °F 43% 29.94 in 10.0 mi East 5.8 mph - N/A   Clear
1:15 AM 86.0 °F 86.1 °F 60.8 °F 43% 29.93 in 10.0 mi Calm Calm - N/A   Clear
1:35 AM 86.0 °F 86.1 °F 60.8 °F 43% 29.94 in 10.0 mi Calm Calm - N/A   Clear
1:55 AM 84.2 °F 83.8 °F 59.0 °F 42% 29.93 in 10.0 mi Calm Calm - N/A   Clear
2:15 AM 84.2 °F 83.8 °F 59.0 °F 42% 29.93 in 10.0 mi East 5.8 mph - N/A   Clear
2:35 AM 84.2 °F 83.8 °F 59.0 °F 42% 29.93 in 10.0 mi ESE 5.8 mph - N/A   Clear
2:55 AM 84.2 °F 84.4 °F 60.8 °F 45% 29.94 in 10.0 mi Calm Calm - N/A   Clear
3:15 AM 84.2 °F 84.4 °F 60.8 °F 45% 29.93 in 10.0 mi Calm Calm - N/A   Clear
3:35 AM 80.6 °F 81.5 °F 60.8 °F 51% 29.93 in 10.0 mi Calm Calm - N/A   Clear
3:55 AM 80.6 °F 81.5 °F 60.8 °F 51% 29.93 in 10.0 mi Calm Calm - N/A   Clear
4:15 AM 82.4 °F 82.5 °F 59.0 °F 45% 29.93 in 10.0 mi Calm Calm - N/A   Clear
4:35 AM 82.4 °F 82.5 °F 59.0 °F 45% 29.93 in 10.0 mi Calm Calm - N/A   Clear
4:55 AM 80.6 °F 81.1 °F 59.0 °F 48% 29.93 in 10.0 mi Calm Calm - N/A   Clear
5:15 AM 82.4 °F 82.5 °F 59.0 °F 45% 29.94 in 10.0 mi East 4.6 mph - N/A   Clear
5:35 AM 82.4 °F 82.5 °F 59.0 °F 45% 29.94 in 10.0 mi Calm Calm - N/A   Clear
5:55 AM 80.6 °F 81.5 °F 60.8 °F 51% 29.95 in 10.0 mi Calm Calm - N/A   Clear
6:15 AM 80.6 °F 81.5 °F 60.8 °F 51% 29.95 in 10.0 mi Calm Calm - N/A   Clear
6:35 AM 82.4 °F 82.9 °F 60.8 °F 48% 29.96 in 10.0 mi Calm Calm - N/A   Clear
6:55 AM 84.2 °F 84.4 °F 60.8 °F 45% 29.96 in 10.0 mi Calm Calm - N/A   Clear
7:15 AM 84.2 °F 85.0 °F 62.6 °F 48% 29.96 in 10.0 mi Calm Calm - N/A   Clear
7:35 AM 86.0 °F 86.1 °F 60.8 °F 43% 29.96 in 10.0 mi Calm Calm - N/A   Clear
7:55 AM 89.6 °F 89.5 °F 60.8 °F 38% 29.96 in 10.0 mi ENE 6.9 mph - N/A   Clear
8:15 AM 89.6 °F 89.5 °F 60.8 °F 38% 29.96 in 10.0 mi East 8.1 mph - N/A   Clear
8:35 AM 91.4 °F 91.4 °F 60.8 °F 36% 29.96 in 10.0 mi East 10.4 mph - N/A   Clear
8:55 AM 91.4 °F 91.4 °F 60.8 °F 36% 29.97 in 10.0 mi ESE 6.9 mph - N/A   Clear
9:15 AM 91.4 °F 92.1 °F 62.6 °F 38% 29.97 in 10.0 mi ESE 8.1 mph - N/A   Clear
9:35 AM 91.4 °F 92.1 °F 62.6 °F 38% 29.97 in 10.0 mi SE 4.6 mph - N/A   Clear
9:55 AM 91.4 °F 92.1 °F 62.6 °F 38% 29.97 in 9.0 mi Calm Calm - N/A   Clear
10:15 AM 93.2 °F 94.1 °F 62.6 °F 36% 29.97 in 10.0 mi Calm Calm - N/A   Clear
10:35 AM 95.0 °F 95.2 °F 60.8 °F 32% 29.97 in 10.0 mi Calm Calm - N/A   Clear
10:55 AM 96.8 °F 97.1 °F 60.8 °F 30% 29.97 in 10.0 mi SSE 3.5 mph - N/A   Clear
11:15 AM 96.8 °F 97.1 °F 60.8 °F 30% 29.96 in 10.0 mi Calm Calm - N/A   Clear
11:35 AM 96.8 °F 97.1 °F 60.8 °F 30% 29.96 in 10.0 mi SE 4.6 mph - N/A   Clear
11:55 AM 98.6 °F 99.4 °F 60.8 °F 29% 29.95 in 10.0 mi WSW 9.2 mph - N/A   Clear
12:15 PM 98.6 °F 99.4 °F 60.8 °F 29% 29.95 in 10.0 mi Calm Calm - N/A   Clear
12:35 PM 100.4 °F 100.2 °F 59.0 °F 25% 29.94 in 10.0 mi SW 9.2 mph - N/A   Clear
12:55 PM 100.4 °F 100.2 °F 59.0 °F 25% 29.93 in 10.0 mi Calm Calm - N/A   Clear
1:15 PM 100.4 °F 100.2 °F 59.0 °F 25% 29.92 in 10.0 mi Calm Calm - N/A   Clear
1:35 PM 100.4 °F 100.2 °F 59.0 °F 25% 29.91 in 10.0 mi Calm Calm - N/A   Clear
1:55 PM 102.2 °F 101.4 °F 57.2 °F 22% 29.90 in 10.0 mi South 5.8 mph 17.3 mph N/A   Clear
2:15 PM 102.2 °F 101.4 °F 57.2 °F 22% 29.89 in 10.0 mi Calm Calm - N/A   Clear
2:35 PM 102.2 °F 101.4 °F 57.2 °F 22% 29.87 in 10.0 mi Calm Calm - N/A   Clear
2:55 PM 102.2 °F 101.4 °F 57.2 °F 22% 29.86 in 10.0 mi SSE 6.9 mph - N/A   Partly Cloudy
3:35 PM 102.2 °F 101.4 °F 57.2 °F 22% 29.85 in 10.0 mi East 9.2 mph - N/A   Clear
3:55 PM 102.2 °F 101.4 °F 57.2 °F 22% 29.85 in 10.0 mi Calm Calm - N/A Thunderstorm Clear
4:15 PM 102.2 °F 102.4 °F 59.0 °F 24% 29.86 in 10.0 mi SSW 16.1 mph 23.0 mph N/A Thunderstorm Thunderstorm
4:35 PM 93.2 °F 94.1 °F 62.6 °F 36% 29.86 in 10.0 mi South 16.1 mph 27.6 mph N/A Thunderstorm Scattered Clouds
4:55 PM 91.4 °F 91.4 °F 60.8 °F 36% 29.86 in 10.0 mi SSW 6.9 mph - N/A   Clear
5:15 PM 93.2 °F 93.3 °F 60.8 °F 34% 29.86 in 10.0 mi SW 3.5 mph - N/A   Clear
5:35 PM 95.0 °F 94.4 °F 59.0 °F 30% 29.85 in 10.0 mi Calm Calm - N/A   Clear
5:55 PM 96.8 °F 96.2 °F 59.0 °F 28% 29.85 in 10.0 mi Calm Calm - N/A   Clear
6:15 PM 96.8 °F 96.2 °F 59.0 °F 28% 29.85 in 10.0 mi SSW 3.5 mph - N/A   Clear
6:35 PM 95.0 °F 95.2 °F 60.8 °F 32% 29.86 in 10.0 mi Calm Calm - N/A   Clear
6:55 PM 95.0 °F 94.4 °F 59.0 °F 30% 29.87 in 10.0 mi Calm Calm - N/A   Clear
7:15 PM 95.0 °F 95.2 °F 60.8 °F 32% 29.87 in 10.0 mi Calm Calm - N/A   Clear
7:35 PM 93.2 °F 94.1 °F 62.6 °F 36% 29.88 in 10.0 mi Calm Calm - N/A   Clear
7:55 PM 93.2 °F 94.1 °F 62.6 °F 36% 29.88 in 10.0 mi Calm Calm - N/A   Clear
8:15 PM 93.2 °F 93.3 °F 60.8 °F 34% 29.89 in 10.0 mi Calm Calm - N/A   Clear
8:35 PM 93.2 °F 93.3 °F 60.8 °F 34% 29.90 in 10.0 mi Calm Calm - N/A   Clear
8:55 PM 93.2 °F 94.1 °F 62.6 °F 36% 29.91 in 10.0 mi ENE 6.9 mph 19.6 mph N/A   Mostly Cloudy
9:15 PM 93.2 °F 93.3 °F 60.8 °F 34% 29.91 in 10.0 mi Calm Calm - N/A   Partly Cloudy
9:35 PM 93.2 °F 93.3 °F 60.8 °F 34% 29.91 in 10.0 mi Calm Calm - N/A   Clear
9:55 PM 91.4 °F 91.4 °F 60.8 °F 36% 29.91 in 10.0 mi Calm Calm - N/A   Clear
10:35 PM 91.4 °F 91.4 °F 60.8 °F 36% 29.91 in 10.0 mi Calm Calm - N/A   Clear
10:55 PM 91.4 °F 91.4 °F 60.8 °F 36% 29.91 in 10.0 mi Calm Calm - N/A   Clear
11:15 PM 89.6 °F 91.1 °F 64.4 °F 43% 29.92 in 10.0 mi Calm Calm - N/A   Clear
11:35 PM 89.6 °F 91.1 °F 64.4 °F 43% 29.92 in 10.0 mi Calm Calm - N/A   Clear
11:55 PM 89.6 °F 91.1 °F 64.4 °F 43% 29.93 in 10.0 mi Calm Calm - N/A   Scattered Clouds